Location: Arrien
(43.3167°N, 0.1500°W)
Time: 17:00:58
(UTC+00:00)

Cosmos 2082 - Pass Details

Date: 25 May 2022
Orbit: 835 x 853 km, 71.0° (Epoch: 01 July)

Event Time Altitude Azimuth Distance (km) Brightness Sun altitude
Rises 21:50:06 0° 327° (NNW) 3,398 8.5 -19.3°
Reaches altitude 10° 21:52:44 10° 319° (NW) 2,457 7.3 -19.5°
Maximum altitude 21:57:47 35° 255° (WSW) 1,324 4.8 -20.0°
Enters shadow 22:00:44 21° 205° (SSW) 1,793 5.1 -20.2°
